{"data":{"norad_id":56960,"intl_designator":"2023-084AE","name":"ORBITER SN3","alt_names":[],"object_type":"PAYLOAD","status":"ACTIVE","operator":null,"country":"US","launch_date":"2023-06-12","launch_site_code":"AFWTR","launch_vehicle":null,"mission":null,"orbit_class":"UNKNOWN","rcs_meters":null,"size_class":null,"mass_kg":null,"dimensions":null,"purposes":[],"wikipedia_slug":null,"has_3d_model":false,"image_url":null,"decayed_at":null,"tle_current":{"epoch":"2026-09-21T23:31:46.841664Z","epoch_age_seconds":72280,"freshness":"FRESH","line1":"1 56960U 23084AE  26264.98040326  .00005563  00000+0  16154-3 0  9993","line2":"2 56960  97.6402  49.2239 0007385 358.8119   1.3105 15.35908207182341","mean_motion":15.35908207,"eccentricity":0.0007385,"inclination_deg":97.6402,"raan_deg":49.2239,"arg_perigee_deg":358.8119,"mean_anomaly_deg":1.3105,"bstar":0.00016154,"rev_number":18234,"period_min":93.755602934935,"perigee_km":453.17554703402,"apogee_km":463.2728525261,"semimajor_km":6836.3611997801,"source":"CELESTRAK","updated_at":"2026-09-22T09:00:25.995292Z"}}}